• In Uzbekistan
  • List of Countries
  • For 7 days
  • Water Temperature
  • Satellite Maps
  • Weather Map
  • Weather Widgets
  • user-avatar
    Login

    Hourly Weather Sarikamis

    Today, 19 September, Wednesday

    Time Temperature Precipitation Wind Pressure Humidity
    00:00 +9°C° 0.1 mm 1 mps 587 mmHg 86%
    01:00 +8°C° 0 mm 1 mps 587 mmHg 88%
    02:00 +8°C° 0 mm 1 mps 587 mmHg 90%
    03:00 +8°C° 0 mm 1 mps 587 mmHg 91%
    04:00 +7°C° 0 mm 1 mps 587 mmHg 92%
    05:00 +7°C° 0 mm 1 mps 587 mmHg 92%
    06:00 +7°C° 0 mm 1 mps 586 mmHg 92%
    07:00 +9°C° 0 mm 1 mps 587 mmHg 82%
    08:00 +10°C° 0 mm 1 mps 588 mmHg 73%
    09:00 +12°C° 0 mm 2 mps 589 mmHg 63%
    10:00 +14°C° 0 mm 2 mps 589 mmHg 56%
    11:00 +15°C° 0 mm 1 mps 590 mmHg 49%
    12:00 +18°C° 0 mm 1 mps 590 mmHg 42%
    13:00 +17°C° 0 mm 2 mps 590 mmHg 39%
    14:00 +18°C° 0 mm 2 mps 590 mmHg 37%
    15:00 +18°C° 0 mm 2 mps 590 mmHg 34%
    16:00 +17°C° 0 mm 2 mps 590 mmHg 37%
    17:00 +17°C° 0 mm 2 mps 589 mmHg 40%
    18:00 +16°C° 0 mm 3 mps 589 mmHg 43%
    19:00 +14°C° 0 mm 2 mps 589 mmHg 50%
    20:00 +13°C° 0 mm 2 mps 588 mmHg 58%
    21:00 +10°C° 0 mm 2 mps 588 mmHg 65%
    22:00 +9°C° 0 mm 2 mps 588 mmHg 69%
    23:00 +9°C° 0 mm 2 mps 587 mmHg 74%

    Tomorrow, 20 September, Thursday

    Time Temperature Precipitation Wind Pressure Humidity
    00:00 +9°C° 0 mm 1 mps 587 mmHg 78%
    01:00 +8°C° 0 mm 1 mps 587 mmHg 81%
    02:00 +8°C° 0 mm 1 mps 587 mmHg 84%
    03:00 +8°C° 0 mm 1 mps 587 mmHg 86%
    04:00 +7°C° 0 mm 1 mps 587 mmHg 88%
    05:00 +7°C° 0 mm 1 mps 586 mmHg 89%
    06:00 +7°C° 0 mm 1 mps 586 mmHg 90%
    07:00 +9°C° 0 mm 1 mps 587 mmHg 78%
    08:00 +10°C° 0 mm 2 mps 588 mmHg 67%
    09:00 +13°C° 0 mm 2 mps 589 mmHg 55%
    10:00 +15°C° 0 mm 2 mps 590 mmHg 48%
    11:00 +16°C° 0 mm 2 mps 590 mmHg 42%
    12:00 +18°C° 0 mm 2 mps 590 mmHg 35%
    13:00 +19°C° 0 mm 2 mps 590 mmHg 32%
    14:00 +19°C° 0 mm 2 mps 590 mmHg 29%
    15:00 +20°C° 0 mm 2 mps 590 mmHg 26%
    16:00 +19°C° 0 mm 2 mps 590 mmHg 29%
    17:00 +18°C° 0 mm 2 mps 589 mmHg 32%
    18:00 +16°C° 0 mm 2 mps 589 mmHg 35%
    19:00 +15°C° 0 mm 2 mps 588 mmHg 40%
    20:00 +13°C° 0 mm 2 mps 588 mmHg 45%
    21:00 +12°C° 0 mm 2 mps 588 mmHg 50%
    22:00 +10°C° 0 mm 2 mps 588 mmHg 54%
    23:00 +10°C° 0 mm 2 mps 587 mmHg 59%

    Day after tomorrow, 21 September, Friday

    Time Temperature Precipitation Wind Pressure Humidity
    00:00 +9°C° 0 mm 2 mps 587 mmHg 64%
    01:00 +8°C° 0 mm 2 mps 587 mmHg 68%
    02:00 +8°C° 0 mm 2 mps 586 mmHg 72%
    03:00 +7°C° 0 mm 2 mps 586 mmHg 76%
    04:00 +8°C° 0 mm 1 mps 586 mmHg 78%
    05:00 +8°C° 0 mm 1 mps 586 mmHg 80%
    06:00 +7°C° 0 mm 1 mps 586 mmHg 83%
    07:00 +10°C° 0 mm 1 mps 587 mmHg 72%
    08:00 +12°C° 0 mm 1 mps 588 mmHg 62%
    09:00 +14°C° 0 mm 1 mps 589 mmHg 51%
    10:00 +16°C° 0 mm 1 mps 590 mmHg 45%
    11:00 +19°C° 0 mm 1 mps 590 mmHg 38%
    12:00 +21°C° 0 mm 1 mps 591 mmHg 32%
    13:00 +21°C° 0 mm 1 mps 591 mmHg 30%
    14:00 +22°C° 0 mm 1 mps 591 mmHg 28%
    15:00 +22°C° 0 mm 1 mps 590 mmHg 26%
    16:00 +21°C° 0.1 mm 1 mps 590 mmHg 29%
    17:00 +20°C° 0.1 mm 1 mps 590 mmHg 33%
    18:00 +18°C° 0.1 mm 1 mps 589 mmHg 36%
    19:00 +16°C° 0.3 mm 2 mps 589 mmHg 41%
    20:00 +15°C° 0.3 mm 2 mps 589 mmHg 46%
    21:00 +14°C° 0.3 mm 2 mps 589 mmHg 52%
    22:00 +13°C° 0.1 mm 2 mps 588 mmHg 55%
    23:00 +12°C° 0.1 mm 2 mps 588 mmHg 59%

    22 September, Saturday

    Time Temperature Precipitation Wind Pressure Humidity
    00:00 +10°C° 0.1 mm 2 mps 588 mmHg 62%
    01:00 +10°C° 0 mm 2 mps 587 mmHg 65%
    02:00 +9°C° 0 mm 2 mps 587 mmHg 68%
    03:00 +10°C° 0 mm 1 mps 587 mmHg 70%
    04:00 +8°C° 0 mm 2 mps 587 mmHg 72%
    05:00 +8°C° 0 mm 2 mps 587 mmHg 74%
    06:00 +8°C° 0 mm 2 mps 587 mmHg 76%
    07:00 +10°C° 0 mm 2 mps 587 mmHg 66%
    08:00 +13°C° 0 mm 2 mps 588 mmHg 56%
    09:00 +15°C° 0 mm 2 mps 589 mmHg 46%
    10:00 +17°C° 0 mm 2 mps 590 mmHg 40%
    11:00 +19°C° 0 mm 2 mps 591 mmHg 33%
    12:00 +21°C° 0 mm 2 mps 591 mmHg 27%
    13:00 +21°C° 0 mm 2 mps 591 mmHg 26%
    14:00 +21°C° 0 mm 2 mps 590 mmHg 24%
    15:00 +21°C° 0 mm 2 mps 590 mmHg 23%
    16:00 +20°C° 0 mm 2 mps 590 mmHg 27%
    17:00 +19°C° 0 mm 2 mps 589 mmHg 30%
    18:00 +17°C° 0 mm 2 mps 589 mmHg 34%
    19:00 +16°C° 0 mm 2 mps 589 mmHg 40%
    20:00 +14°C° 0 mm 2 mps 588 mmHg 45%
    21:00 +13°C° 0 mm 2 mps 588 mmHg 51%
    22:00 +12°C° 0 mm 2 mps 588 mmHg 55%
    23:00 +10°C° 0 mm 2 mps 587 mmHg 59%

    23 September, Sunday

    Time Temperature Precipitation Wind Pressure Humidity
    00:00 +10°C° 0 mm 2 mps 587 mmHg 63%
    01:00 +10°C° 0 mm 1 mps 587 mmHg 66%
    02:00 +10°C° 0 mm 1 mps 586 mmHg 69%
    03:00 +9°C° 0 mm 1 mps 586 mmHg 72%
    04:00 +9°C° 0 mm 1 mps 586 mmHg 74%
    05:00 +8°C° 0 mm 1 mps 586 mmHg 77%
    06:00 +8°C° 0 mm 1 mps 586 mmHg 79%
    07:00 +10°C° 0 mm 1 mps 587 mmHg 69%
    08:00 +13°C° 0 mm 1 mps 588 mmHg 59%
    09:00 +15°C° 0 mm 1 mps 589 mmHg 49%
    10:00 +18°C° 0 mm 1 mps 589 mmHg 42%
    11:00 +19°C° 0 mm 1 mps 589 mmHg 35%
    12:00 +21°C° 0 mm 1 mps 590 mmHg 29%
    13:00 +22°C° 0 mm 1 mps 590 mmHg 26%
    14:00 +21°C° 0 mm 2 mps 590 mmHg 24%
    15:00 +23°C° 0 mm 2 mps 589 mmHg 22%
    16:00 +20°C° 0 mm 2 mps 589 mmHg 26%
    17:00 +19°C° 0 mm 2 mps 588 mmHg 30%
    18:00 +17°C° 0 mm 2 mps 588 mmHg 33%
    19:00 +16°C° 0.2 mm 2 mps 588 mmHg 41%
    20:00 +15°C° 0.2 mm 2 mps 588 mmHg 48%
    21:00 +13°C° 0.2 mm 2 mps 587 mmHg 55%
    22:00 +13°C° 0.4 mm 2 mps 587 mmHg 61%
    23:00 +12°C° 0.4 mm 2 mps 586 mmHg 68%

    24 September, Monday

    Time Temperature Precipitation Wind Pressure Humidity
    00:00 +11°C° 0.4 mm 1 mps 586 mmHg 74%
    01:00 +10°C° 0 mm 1 mps 586 mmHg 78%
    02:00 +9°C° 0 mm 1 mps 585 mmHg 81%
    03:00 +9°C° 0 mm 1 mps 585 mmHg 85%
    04:00 +8°C° 0 mm 1 mps 585 mmHg 86%
    05:00 +8°C° 0 mm 1 mps 585 mmHg 88%
    06:00 +8°C° 0 mm 1 mps 585 mmHg 90%
    07:00 +9°C° 0 mm 1 mps 585 mmHg 80%
    08:00 +11°C° 0 mm 1 mps 586 mmHg 69%
    09:00 +13°C° 0 mm 1 mps 587 mmHg 59%
    10:00 +15°C° 0 mm 1 mps 588 mmHg 51%
    11:00 +16°C° 0 mm 2 mps 588 mmHg 43%
    12:00 +18°C° 0 mm 2 mps 588 mmHg 35%
    13:00 +18°C° 0 mm 2 mps 588 mmHg 32%
    14:00 +19°C° 0 mm 3 mps 588 mmHg 29%
    15:00 +20°C° 0 mm 3 mps 588 mmHg 25%
    16:00 +18°C° 0 mm 3 mps 588 mmHg 29%
    17:00 +17°C° 0 mm 2 mps 587 mmHg 33%
    18:00 +15°C° 0 mm 1 mps 586 mmHg 37%
    19:00 +14°C° 0 mm 1 mps 586 mmHg 43%
    20:00 +13°C° 0 mm 2 mps 585 mmHg 49%
    21:00 +10°C° 0 mm 2 mps 585 mmHg 55%
    22:00 +11°C° 0 mm 1 mps 585 mmHg 60%
    23:00 +10°C° 0 mm 1 mps 584 mmHg 66%
    Show more